Tracking 18843 objects as of 20-November-2017
HD Live streaming from Space Station
objects crossing your sky now

FENGYUN 1C DEB

Track FENGYUN 1C DEB now!
10-day predictions


NORAD ID: 35174
Int'l Code: 1999-025DNE
Perigee: 531.4 km
Apogee: 1,062.3 km
Inclination: 98.9 °
Period: 100.7 minutes
Semi major axis: 7167 km
RCS: 0.0093 m2 (small)
Launch date: May 10, 1999
Source: People's Republic of China (PRC)
Launch site: Taiyaun Space Center, China (TSC)

Note: This is SATELLITE DEBRIS
aabbcc
Your satellite tracking list
Your tracking list is empty




NASA's NSSDC Master Catalog

Two Line Element Set (TLE):
1 35174U 99025DNE 17323.52560799 +.00001560 +00000-0 +29309-3 0  9992
2 35174 098.9410 078.0890 0370318 316.4662 040.7829 14.30609953476529
Source of the keplerian elements: AFSPC